SRV160M FTTJ-HECA

Flight info

Callsign SRV160M
Flight time N/A
Altitude 37000
Route FL DCT TONBA R778 DITAR M720 FYM
Aircraft CONC/H-SDE2E3FGHIRYW/X

Departure

Time 2026-05-07 18:56
Airport N'Djamena International Airport (FTTJ)

Arrival

Time N/A
Airport Cairo International Airport (HECA)
Time Latitude Longitude Altitude Speed Heading
2026-05-07 18:43 12.12867 15.03207 1009 ft 0 kts 175°
2026-05-07 18:52 12.12847 15.03185 982 ft 7 kts 243°
2026-05-07 18:52 12.12836 15.03126 982 ft 4 kts 297°
2026-05-07 18:52 12.12853 15.03091 986 ft 11 kts 302°
2026-05-07 18:52 12.12926 15.03010 991 ft 17 kts 310°
2026-05-07 18:53 12.12909 15.02925 988 ft 12 kts 238°
2026-05-07 18:53 12.12843 15.02849 988 ft 18 kts 226°
2026-05-07 18:53 12.12742 15.02745 985 ft 23 kts 224°
2026-05-07 18:53 12.12614 15.02620 991 ft 28 kts 225°
2026-05-07 18:54 12.12497 15.02531 982 ft 11 kts 191°
2026-05-07 18:54 12.12482 15.02506 988 ft 4 kts 254°
2026-05-07 18:54 12.12494 15.02488 990 ft 2 kts 313°
2026-05-07 18:54 12.12507 15.02492 982 ft 1 kts
2026-05-07 18:55 12.12510 15.02500 984 ft 0 kts 46°
2026-05-07 18:55 12.12511 15.02501 984 ft 8 kts 46°
2026-05-07 18:56 12.12829 15.02836 988 ft 124 kts 45°
2026-05-07 18:56 12.13707 15.03752 990 ft 224 kts 46°
2026-05-07 18:56 12.15007 15.05026 1407 ft 300 kts 40°
2026-05-07 18:56 12.16677 15.06315 2041 ft 280 kts 36°
2026-05-07 18:57 12.18144 15.07414 2662 ft 253 kts 37°
2026-05-07 18:57 12.19636 15.08576 3373 ft 284 kts 39°
2026-05-07 18:57 12.21243 15.09873 3824 ft 320 kts 40°
2026-05-07 18:57 12.23159 15.11443 4105 ft 385 kts 39°
2026-05-07 18:58 12.25362 15.13222 5289 ft 415 kts 39°
2026-05-07 18:58 12.27663 15.15062 6705 ft 423 kts 39°
2026-05-07 18:58 12.30010 15.16941 8114 ft 432 kts 39°
2026-05-07 18:58 12.32395 15.18853 9603 ft 440 kts 39°
2026-05-07 18:59 12.34799 15.20782 10978 ft 452 kts 39°
2026-05-07 18:59 12.37314 15.22801 12419 ft 466 kts 39°
2026-05-07 18:59 12.39898 15.24874 13895 ft 477 kts 39°
2026-05-07 18:59 12.42540 15.26994 15279 ft 487 kts 39°
2026-05-07 19:00 12.45224 15.29148 16729 ft 493 kts 38°
2026-05-07 19:00 12.47945 15.31334 18216 ft 499 kts 38°
2026-05-07 19:00 12.50701 15.33547 19428 ft 507 kts 38°
2026-05-07 19:00 12.53503 15.35798 20494 ft 517 kts 38°
2026-05-07 19:01 12.56354 15.38091 21515 ft 525 kts 39°
2026-05-07 19:01 12.59248 15.40418 22545 ft 533 kts 39°
2026-05-07 19:01 12.62183 15.42779 23498 ft 540 kts 39°
2026-05-07 19:01 12.65156 15.45172 24293 ft 547 kts 38°
2026-05-07 19:02 12.68161 15.47588 25160 ft 551 kts 38°
2026-05-07 19:02 12.71158 15.49992 25946 ft 556 kts 37°
2026-05-07 19:02 12.74361 15.52243 26772 ft 559 kts 30°
2026-05-07 19:02 12.77628 15.54449 27505 ft 565 kts 38°
2026-05-07 19:03 12.80647 15.57059 28105 ft 571 kts 40°
2026-05-07 19:03 12.83635 15.59764 28551 ft 574 kts 39°
2026-05-07 19:03 12.86772 15.62343 29178 ft 581 kts 37°
2026-05-07 19:03 12.89972 15.64888 30156 ft 584 kts 36°
2026-05-07 19:04 12.93202 15.67438 30912 ft 590 kts 36°
2026-05-07 19:04 12.96441 15.69993 31690 ft 598 kts 36°
2026-05-07 19:04 12.99773 15.72628 32309 ft 608 kts 35°
2026-05-07 19:04 13.03156 15.75307 32665 ft 621 kts 35°
2026-05-07 19:05 13.06600 15.78038 32954 ft 631 kts 35°
2026-05-07 19:05 13.10094 15.80811 33183 ft 638 kts 35°
2026-05-07 19:05 13.13621 15.83610 33405 ft 644 kts 35°
2026-05-07 19:05 13.17180 15.86436 33593 ft 650 kts 35°
2026-05-07 19:06 13.20766 15.89285 33764 ft 655 kts 35°
2026-05-07 19:06 13.28018 15.95049 34046 ft 664 kts 35°
2026-05-07 19:06 13.31677 15.97958 34201 ft 667 kts 35°
2026-05-07 19:07 13.35357 16.00887 34360 ft 671 kts 35°
2026-05-07 19:07 13.39065 16.03838 34470 ft 675 kts 35°
2026-05-07 19:07 13.42740 16.06763 34608 ft 678 kts 35°
2026-05-07 19:07 13.46487 16.09747 34755 ft 683 kts 35°
2026-05-07 19:08 13.50250 16.12747 34884 ft 687 kts 35°
2026-05-07 19:08 13.54037 16.15766 35019 ft 691 kts 35°
2026-05-07 19:08 13.57845 16.18802 35162 ft 695 kts 35°
2026-05-07 19:08 13.61681 16.21862 35306 ft 699 kts 35°
2026-05-07 19:09 13.65538 16.24942 35424 ft 704 kts 35°
2026-05-07 19:09 13.69419 16.28041 35564 ft 707 kts 35°
2026-05-07 19:09 13.73322 16.31158 35708 ft 712 kts 35°
2026-05-07 19:09 13.77240 16.34290 35843 ft 716 kts 35°
2026-05-07 19:10 13.81180 16.37440 35973 ft 718 kts 35°
2026-05-07 19:10 13.85139 16.40607 36102 ft 722 kts 35°
2026-05-07 19:10 13.89117 16.43790 36209 ft 726 kts 35°
2026-05-07 19:10 13.93120 16.46995 36351 ft 728 kts 35°
2026-05-07 19:11 13.97338 16.49870 38273 ft 726 kts 25°
2026-05-07 19:11 14.01982 16.51855 36766 ft 723 kts 18°
2026-05-07 19:11 14.06783 16.53556 36916 ft 734 kts 16°
2026-05-07 19:11 14.11598 16.55165 37051 ft 740 kts 15°
2026-05-07 19:12 14.16517 16.56798 37176 ft 744 kts 18°
2026-05-07 19:12 14.21369 16.58746 37310 ft 748 kts 20°
2026-05-07 19:12 14.26212 16.60774 37432 ft 754 kts 20°
2026-05-07 19:12 14.31071 16.62842 37553 ft 756 kts 20°
2026-05-07 19:13 14.35948 16.64923 37676 ft 759 kts 20°
2026-05-07 19:13 14.40844 16.67008 37794 ft 764 kts 20°
2026-05-07 19:13 14.45766 16.69105 37917 ft 766 kts 20°
2026-05-07 19:13 14.50708 16.71209 38345 ft 766 kts 20°
2026-05-07 19:14 14.55625 16.73304 39056 ft 763 kts 20°
2026-05-07 19:14 14.60538 16.75396 39771 ft 764 kts 20°
2026-05-07 19:14 14.65470 16.77498 40506 ft 769 kts 20°
2026-05-07 19:14 14.70434 16.79616 41280 ft 776 kts 20°
2026-05-07 19:15 14.75403 16.81735 42061 ft 786 kts 20°
2026-05-07 19:15 14.80500 16.83911 42886 ft 797 kts 20°
2026-05-07 19:15 14.85658 16.86115 43745 ft 807 kts 20°
2026-05-07 19:15 14.90900 16.88355 44612 ft 819 kts 20°
2026-05-07 19:16 14.96196 16.90619 45319 ft 830 kts 20°
2026-05-07 19:16 15.01582 16.92924 46045 ft 842 kts 20°
2026-05-07 19:16 15.07039 16.95259 46749 ft 854 kts 20°
2026-05-07 19:16 15.12573 16.97629 47457 ft 866 kts 20°
2026-05-07 19:17 15.18191 17.00036 48161 ft 878 kts 20°
2026-05-07 19:17 15.23807 17.02444 48863 ft 890 kts 20°
2026-05-07 19:17 15.29567 17.04915 49573 ft 903 kts 20°
2026-05-07 19:17 15.35417 17.07426 50281 ft 916 kts 20°
2026-05-07 19:18 15.41345 17.09972 50987 ft 928 kts 20°
2026-05-07 19:18 15.47352 17.12554 51681 ft 940 kts 20°
2026-05-07 19:18 15.53428 17.15168 52368 ft 952 kts 20°
2026-05-07 19:18 15.59583 17.17816 53061 ft 964 kts 20°
2026-05-07 19:19 15.65815 17.20500 53775 ft 975 kts 20°
2026-05-07 19:19 15.72124 17.23219 54460 ft 985 kts 20°
2026-05-07 19:19 15.78495 17.25965 55147 ft 994 kts 20°
2026-05-07 19:19 15.84910 17.28734 55828 ft 1002 kts 20°
2026-05-07 19:20 15.91365 17.31521 56494 ft 1009 kts 20°
2026-05-07 19:20 15.97872 17.34333 57185 ft 1015 kts 20°
2026-05-07 19:20 16.04328 17.37124 57864 ft 1020 kts 20°
2026-05-07 19:20 16.10894 17.39965 58529 ft 1025 kts 20°
2026-05-07 19:21 16.17502 17.42826 59175 ft 1030 kts 20°
2026-05-07 19:21 16.24144 17.45705 59520 ft 1038 kts 20°
2026-05-07 19:21 16.30836 17.48606 59701 ft 1047 kts 20°
2026-05-07 19:21 16.37595 17.51540 59782 ft 1058 kts 20°
2026-05-07 19:22 16.51334 17.57509 59839 ft 1078 kts 20°
2026-05-07 19:22 16.65326 17.63598 59897 ft 1099 kts 20°
2026-05-07 19:23 16.79574 17.69808 59876 ft 1118 kts 20°
2026-05-07 19:23 16.94048 17.76127 59882 ft 1137 kts 20°
2026-05-07 19:24 17.08670 17.82521 59883 ft 1154 kts 20°
2026-05-07 19:24 17.23598 17.89060 59894 ft 1169 kts 20°
2026-05-07 19:25 17.31091 17.92349 59874 ft 1155 kts 20°
2026-05-07 19:25 17.38447 17.95578 59865 ft 1136 kts 20°
2026-05-07 19:25 17.45701 17.98764 59867 ft 1125 kts 20°
2026-05-07 19:25 17.52931 18.01942 59872 ft 1128 kts 20°
2026-05-07 19:26 17.67371 18.08302 59908 ft 1137 kts 20°
2026-05-07 19:26 17.82009 18.14760 59909 ft 1145 kts 20°
2026-05-07 19:27 17.96649 18.21232 59926 ft 1128 kts 20°
2026-05-07 19:27 18.08718 18.26571 59911 ft 1123 kts 20°
2026-05-07 19:28 18.23071 18.32936 59968 ft 1126 kts 20°
2026-05-07 19:28 18.37528 18.39357 59932 ft 1130 kts 20°
2026-05-07 19:29 18.52010 18.45801 59938 ft 1131 kts 20°
2026-05-07 19:29 18.66520 18.52270 59950 ft 1131 kts 20°
2026-05-07 19:30 18.81060 18.58764 59935 ft 1134 kts 20°
2026-05-07 19:30 18.95541 18.65244 59953 ft 1135 kts 20°
2026-05-07 19:31 19.10128 18.71784 59965 ft 1136 kts 20°
2026-05-07 19:31 19.24700 18.78330 59995 ft 1137 kts 20°
2026-05-07 19:32 19.39198 18.84855 59988 ft 1139 kts 20°
2026-05-07 19:32 19.53813 18.91445 60022 ft 1140 kts 20°
2026-05-07 19:33 19.68424 18.98047 60024 ft 1139 kts 20°
2026-05-07 19:33 19.82944 19.04621 60073 ft 1141 kts 19°
2026-05-07 19:34 19.97566 19.11254 60054 ft 1142 kts 20°
2026-05-07 19:34 20.12221 19.17916 60053 ft 1143 kts 19°
2026-05-07 19:35 20.26783 19.24549 60045 ft 1143 kts 19°
2026-05-07 19:35 20.41437 19.31237 60018 ft 1144 kts 20°
2026-05-07 19:36 20.56078 19.37933 60023 ft 1143 kts 20°
2026-05-07 19:36 20.70654 19.44614 60055 ft 1144 kts 20°
2026-05-07 19:37 20.85302 19.51341 60035 ft 1145 kts 20°
2026-05-07 19:37 20.99848 19.58037 60065 ft 1144 kts 19°
2026-05-07 19:38 21.14451 19.64772 60041 ft 1142 kts 19°
2026-05-07 19:38 21.28987 19.71492 60053 ft 1140 kts 19°
2026-05-07 19:39 21.43589 19.78256 60040 ft 1141 kts 19°
2026-05-07 19:39 21.58201 19.85040 60063 ft 1143 kts 20°
2026-05-07 19:40 21.71899 19.93668 60178 ft 1163 kts 36°
2026-05-07 19:40 21.77893 19.99566 60226 ft 1174 kts 44°
2026-05-07 19:40 21.83103 20.06372 60260 ft 1183 kts 52°
2026-05-07 19:41 21.87421 20.13959 60310 ft 1195 kts 61°
2026-05-07 19:41 21.90976 20.22062 60243 ft 1196 kts 59°
2026-05-07 19:41 21.95080 20.29801 60233 ft 1185 kts 51°
2026-05-07 19:41 22.00117 20.36809 60260 ft 1177 kts 43°
2026-05-07 19:42 22.11666 20.49218 60202 ft 1173 kts 45°
2026-05-07 19:42 22.22146 20.62818 60151 ft 1175 kts 44°
2026-05-07 19:43 22.32922 20.76135 60081 ft 1177 kts 45°
2026-05-07 19:43 22.43638 20.89333 60067 ft 1174 kts 45°
2026-05-07 19:44 22.54411 21.02637 60042 ft 1175 kts 45°
2026-05-07 19:44 22.65184 21.15979 60090 ft 1175 kts 45°
2026-05-07 19:45 22.75922 21.29318 60053 ft 1174 kts 45°
2026-05-07 19:45 22.86637 21.42662 60046 ft 1175 kts 45°
2026-05-07 19:46 22.97347 21.56035 60049 ft 1175 kts 45°
2026-05-07 19:46 23.08063 21.69450 60052 ft 1174 kts 45°
2026-05-07 19:47 23.18764 21.82883 60058 ft 1175 kts 45°
2026-05-07 19:47 23.29451 21.96333 60058 ft 1174 kts 45°
2026-05-07 19:48 23.40065 22.09728 60117 ft 1174 kts 45°
2026-05-07 19:48 23.50712 22.23200 60064 ft 1173 kts 46°
2026-05-07 19:49 23.61342 22.36687 60066 ft 1174 kts 46°
2026-05-07 19:49 23.71967 22.50206 60081 ft 1170 kts 46°
2026-05-07 19:50 23.82569 22.63730 60071 ft 1172 kts 46°
2026-05-07 19:50 23.93156 22.77275 60093 ft 1170 kts 46°
2026-05-07 19:51 24.03667 22.90758 60065 ft 1169 kts 46°
2026-05-07 19:51 24.14202 23.04308 60129 ft 1170 kts 46°
2026-05-07 19:52 24.24732 23.17891 60072 ft 1168 kts 46°
2026-05-07 19:52 24.35259 23.31509 60078 ft 1169 kts 46°
2026-05-07 19:53 24.45763 23.45134 60105 ft 1169 kts 47°
2026-05-07 19:53 24.56253 23.58781 60082 ft 1168 kts 47°
2026-05-07 19:54 24.66657 23.72354 60099 ft 1169 kts 47°
2026-05-07 19:54 24.77134 23.86060 60091 ft 1170 kts 47°
2026-05-07 19:55 24.87603 23.99797 60117 ft 1168 kts 47°
2026-05-07 19:55 24.98043 24.13533 60106 ft 1170 kts 47°
2026-05-07 19:56 25.08479 24.27307 60130 ft 1169 kts 47°
2026-05-07 19:56 25.18830 24.41006 60127 ft 1171 kts 47°
2026-05-07 19:57 25.29249 24.54837 60108 ft 1171 kts 47°
2026-05-07 19:57 25.39663 24.68702 60114 ft 1171 kts 47°
2026-05-07 19:58 25.50061 24.82587 60119 ft 1171 kts 47°
2026-05-07 19:58 25.60455 24.96508 60115 ft 1171 kts 48°
2026-05-07 19:59 25.70852 25.10476 60118 ft 1175 kts 48°
2026-05-07 19:59 25.81227 25.24455 60147 ft 1174 kts 48°
2026-05-07 20:00 25.91606 25.38482 60115 ft 1176 kts 48°
2026-05-07 20:00 26.01993 25.52566 60157 ft 1176 kts 48°
2026-05-07 20:01 26.12302 25.66584 60128 ft 1178 kts 48°
2026-05-07 20:01 26.22704 25.80774 60177 ft 1180 kts 48°
2026-05-07 20:02 26.33084 25.94977 60125 ft 1182 kts 48°
2026-05-07 20:02 26.43490 26.09262 60186 ft 1187 kts 48°
2026-05-07 20:03 26.53893 26.23588 60130 ft 1188 kts 49°
2026-05-07 20:03 26.64301 26.37965 60205 ft 1192 kts 49°
2026-05-07 20:04 26.74659 26.52321 60136 ft 1193 kts 49°
2026-05-07 20:04 26.85076 26.66805 60128 ft 1193 kts 49°
2026-05-07 20:05 26.95468 26.81301 60134 ft 1192 kts 49°
2026-05-07 20:05 27.05855 26.95837 60135 ft 1193 kts 49°
2026-05-07 20:06 27.16214 27.10383 60129 ft 1190 kts 49°
2026-05-07 20:06 27.26485 27.24853 60126 ft 1191 kts 49°
2026-05-07 20:07 27.36799 27.39431 60145 ft 1187 kts 49°
2026-05-07 20:07 27.47106 27.54046 60146 ft 1190 kts 50°
2026-05-07 20:08 27.57360 27.68639 60146 ft 1187 kts 50°
2026-05-07 20:08 27.67612 27.83275 60147 ft 1188 kts 50°
2026-05-07 20:09 27.77841 27.97928 60148 ft 1189 kts 50°
2026-05-07 20:10 27.93122 28.19912 60168 ft 1192 kts 50°
2026-05-07 20:10 28.03357 28.34698 60155 ft 1190 kts 50°
2026-05-07 20:11 28.13577 28.49515 60177 ft 1195 kts 50°
2026-05-07 20:11 28.23780 28.64359 60166 ft 1193 kts 50°
2026-05-07 20:12 28.33998 28.79276 60171 ft 1197 kts 51°
2026-05-07 20:12 28.44120 28.94105 60162 ft 1196 kts 51°
2026-05-07 20:13 28.54311 29.09088 60161 ft 1197 kts 51°
2026-05-07 20:13 28.64479 29.24089 60153 ft 1197 kts 51°
2026-05-07 20:14 28.74651 29.39152 60148 ft 1198 kts 51°
2026-05-07 20:14 28.84805 29.54240 60143 ft 1199 kts 51°
2026-05-07 20:15 28.94885 29.69272 60145 ft 1198 kts 51°
2026-05-07 20:15 29.03298 29.81861 60136 ft 1199 kts 51°
2026-05-07 20:16 29.13414 29.97048 60124 ft 1199 kts 51°
2026-05-07 20:16 29.23517 30.12272 60137 ft 1199 kts 52°
2026-05-07 20:17 29.33599 30.27520 60113 ft 1201 kts 52°
2026-05-07 20:17 29.43661 30.42794 60121 ft 1199 kts 52°
2026-05-07 20:18 29.53701 30.58092 60110 ft 1200 kts 52°
2026-05-07 20:18 29.63733 30.73434 60094 ft 1199 kts 52°
2026-05-07 20:18 29.68747 30.81124 59332 ft 1204 kts 52°
2026-05-07 20:19 29.73760 30.88827 58580 ft 1203 kts 52°
2026-05-07 20:19 29.78694 30.96423 57862 ft 1190 kts 52°
2026-05-07 20:19 29.83591 31.03977 57103 ft 1163 kts 52°
2026-05-07 20:19 29.88376 31.11369 56335 ft 1136 kts 52°
2026-05-07 20:20 29.93043 31.18589 55557 ft 1110 kts 51°
2026-05-07 20:20 29.97955 31.25307 54865 ft 1079 kts 43°
2026-05-07 20:20 30.03520 31.30934 54243 ft 1047 kts 33°
2026-05-07 20:20 30.09590 31.35350 53619 ft 1015 kts 24°
2026-05-07 20:21 30.15987 31.38478 53038 ft 982 kts 14°
2026-05-07 20:21 30.22507 31.40271 52431 ft 948 kts
2026-05-07 20:21 30.28958 31.40725 51842 ft 911 kts 354°
2026-05-07 20:21 30.35121 31.39876 51260 ft 874 kts 343°
2026-05-07 20:22 30.40783 31.37805 50703 ft 836 kts 332°
2026-05-07 20:22 30.45717 31.34674 50124 ft 808 kts 321°
2026-05-07 20:22 30.49939 31.30511 49552 ft 788 kts 309°
2026-05-07 20:22 30.53246 31.25515 49010 ft 775 kts 297°
2026-05-07 20:23 30.55508 31.19905 48547 ft 767 kts 285°
2026-05-07 20:23 30.56674 31.13902 47995 ft 760 kts 274°
2026-05-07 20:23 30.56683 31.07818 47445 ft 753 kts 262°
2026-05-07 20:23 30.55543 31.01928 46891 ft 747 kts 249°
2026-05-07 20:24 30.53320 30.96505 46336 ft 743 kts 239°
2026-05-07 20:24 30.50442 30.91545 45679 ft 741 kts 235°
2026-05-07 20:24 30.47367 30.86785 44946 ft 733 kts 233°
2026-05-07 20:24 30.44249 30.82162 44112 ft 723 kts 233°
2026-05-07 20:25 30.41131 30.77632 43265 ft 714 kts 233°
2026-05-07 20:25 30.38026 30.73169 42455 ft 705 kts 233°
2026-05-07 20:25 30.34957 30.68786 41652 ft 697 kts 232°
2026-05-07 20:25 30.31954 30.64517 40879 ft 690 kts 233°
2026-05-07 20:26 30.28931 30.60239 40140 ft 682 kts 232°
2026-05-07 20:26 30.25933 30.56012 39432 ft 676 kts 232°
2026-05-07 20:26 30.22961 30.51833 38746 ft 670 kts 232°
2026-05-07 20:26 30.20015 30.47699 37903 ft 663 kts 232°
2026-05-07 20:27 30.17099 30.43598 37078 ft 655 kts 232°
2026-05-07 20:27 30.14235 30.39556 36283 ft 647 kts 232°
2026-05-07 20:27 30.11406 30.35549 35522 ft 640 kts 232°
2026-05-07 20:27 30.08618 30.31578 34783 ft 633 kts 232°
2026-05-07 20:28 30.05869 30.27638 34082 ft 626 kts 232°
2026-05-07 20:28 30.03162 30.23732 33237 ft 620 kts 232°
2026-05-07 20:28 30.00487 30.19858 32435 ft 615 kts 232°
2026-05-07 20:28 29.97809 30.16027 31666 ft 611 kts 228°
2026-05-07 20:29 29.94652 30.12865 30956 ft 582 kts 212°
2026-05-07 20:29 29.91080 30.10981 30268 ft 552 kts 195°
2026-05-07 20:29 29.87385 30.10165 29445 ft 530 kts 188°
2026-05-07 20:29 29.83830 30.09697 28610 ft 513 kts 187°
2026-05-07 20:30 29.80322 30.09446 27777 ft 499 kts 176°
2026-05-07 20:30 29.76972 30.10253 27044 ft 488 kts 160°
2026-05-07 20:30 29.73948 30.11924 26305 ft 478 kts 144°
2026-05-07 20:30 29.71615 30.14561 25672 ft 467 kts 123°
2026-05-07 20:31 29.70050 30.17790 25008 ft 458 kts 115°
2026-05-07 20:31 29.68751 30.21121 24631 ft 455 kts 113°
2026-05-07 20:31 29.67524 30.24521 23631 ft 458 kts 112°
2026-05-07 20:31 29.66343 30.27894 22813 ft 450 kts 111°
2026-05-07 20:32 29.65196 30.31209 22010 ft 443 kts 111°
2026-05-07 20:32 29.64067 30.34481 21225 ft 438 kts 111°
2026-05-07 20:32 29.62963 30.37680 20477 ft 434 kts 111°
2026-05-07 20:32 29.61852 30.40894 19728 ft 429 kts 111°
2026-05-07 20:33 29.60626 30.43997 19006 ft 424 kts 124°
2026-05-07 20:33 29.58864 30.46695 18312 ft 419 kts 130°
2026-05-07 20:33 29.56963 30.49225 17532 ft 416 kts 132°
2026-05-07 20:33 29.55034 30.51684 16739 ft 413 kts 133°
2026-05-07 20:34 29.53100 30.54102 16245 ft 409 kts 133°
2026-05-07 20:34 29.51174 30.56481 15154 ft 404 kts 132°
2026-05-07 20:34 29.49238 30.58804 14431 ft 402 kts 133°
2026-05-07 20:34 29.47060 30.60776 13727 ft 400 kts 155°
2026-05-07 20:35 29.44450 30.61614 13012 ft 395 kts 179°
2026-05-07 20:35 29.41773 30.61179 12323 ft 387 kts 204°
2026-05-07 20:35 29.39470 30.59673 11664 ft 379 kts 218°
2026-05-07 20:35 29.37413 30.57797 10960 ft 375 kts 229°
2026-05-07 20:36 29.35956 30.55377 10312 ft 367 kts 248°
2026-05-07 20:36 29.35193 30.52622 9631 ft 359 kts 269°
2026-05-07 20:36 29.35529 30.49845 8964 ft 350 kts 296°
2026-05-07 20:36 29.36909 30.47614 8326 ft 343 kts 323°
2026-05-07 20:37 29.39000 30.46413 7704 ft 337 kts 351°
2026-05-07 20:37 29.41282 30.46497 7113 ft 334 kts 18°
2026-05-07 20:37 29.43278 30.47819 6515 ft 335 kts 41°
2026-05-07 20:37 29.44922 30.49714 5823 ft 335 kts 47°
2026-05-07 20:38 29.46384 30.51799 5106 ft 335 kts 51°
2026-05-07 20:38 29.47791 30.53926 4378 ft 333 kts 50°
2026-05-07 20:38 29.49218 30.55987 3680 ft 326 kts 49°
2026-05-07 20:38 29.50608 30.57942 3205 ft 307 kts 48°
2026-05-07 20:39 29.51952 30.59820 2445 ft 300 kts 49°
2026-05-07 20:39 29.53233 30.61622 1719 ft 283 kts 48°
2026-05-07 20:39 29.54395 30.63288 1618 ft 250 kts 47°
2026-05-07 20:39 29.55405 30.64734 1698 ft 217 kts 49°
2026-05-07 20:40 29.56268 30.66031 1664 ft 195 kts 49°
2026-05-07 20:40 29.57099 30.67314 1567 ft 222 kts 49°
2026-05-07 20:40 29.58163 30.68868 2024 ft 274 kts 50°
2026-05-07 20:40 29.59217 30.70516 2372 ft 231 kts 53°
2026-05-07 20:41 29.60031 30.71950 2342 ft 204 kts 54°
2026-05-07 20:41 29.60806 30.73365 2248 ft 207 kts 52°
2026-05-07 20:41 29.61606 30.74717 2308 ft 207 kts 52°
2026-05-07 20:41 29.62456 30.76060 2189 ft 213 kts 46°
2026-05-07 20:42 29.63479 30.77260 2249 ft 210 kts 40°
2026-05-07 20:42 29.64548 30.78399 2269 ft 209 kts 40°
2026-05-07 20:42 29.65627 30.79546 2189 ft 213 kts 43°
2026-05-07 20:42 29.66711 30.80803 1952 ft 234 kts 43°
2026-05-07 20:43 29.67968 30.82195 1958 ft 243 kts 42°
2026-05-07 20:43 29.69115 30.83440 2005 ft 211 kts 40°
2026-05-07 20:43 29.70197 30.84536 1877 ft 212 kts 39°
2026-05-07 20:43 29.71400 30.85728 1734 ft 234 kts 38°
2026-05-07 20:44 29.72571 30.86891 1716 ft 210 kts 38°
2026-05-07 20:44 29.73725 30.87981 1943 ft 225 kts 37°
2026-05-07 20:44 29.74993 30.89146 2152 ft 240 kts 39°
2026-05-07 20:44 29.76205 30.90360 2285 ft 226 kts 40°
2026-05-07 20:45 29.77313 30.91524 2644 ft 209 kts 41°
2026-05-07 20:45 29.78407 30.92747 2972 ft 238 kts 43°
2026-05-07 20:45 29.79518 30.94264 3017 ft 250 kts 51°
2026-05-07 20:45 29.80436 30.95845 3227 ft 218 kts 54°
2026-05-07 20:46 29.81176 30.97382 3211 ft 238 kts 62°
2026-05-07 20:46 29.81903 30.99162 3399 ft 251 kts 61°
2026-05-07 20:46 29.82673 31.01010 3492 ft 261 kts 60°
2026-05-07 20:46 29.83509 31.02908 3517 ft 263 kts 59°
2026-05-07 20:47 29.84308 31.04686 3434 ft 239 kts 58°
2026-05-07 20:47 29.85086 31.06342 3297 ft 244 kts 57°
2026-05-07 20:47 29.86068 31.07971 3241 ft 249 kts 46°
2026-05-07 20:47 29.87256 31.09307 2869 ft 232 kts 37°
2026-05-07 20:48 29.88488 31.10471 2538 ft 238 kts 40°
2026-05-07 20:48 29.89753 31.11780 2459 ft 246 kts 42°
2026-05-07 20:48 29.90956 31.13139 2336 ft 238 kts 41°
2026-05-07 20:48 29.92145 31.14459 2113 ft 242 kts 46°
2026-05-07 20:49 29.93201 31.15969 2046 ft 229 kts 48°
2026-05-07 20:49 29.94175 31.17391 1991 ft 233 kts 51°
2026-05-07 20:49 29.95160 31.18966 2079 ft 248 kts 52°
2026-05-07 20:49 29.96113 31.20623 1937 ft 249 kts 58°
2026-05-07 20:50 29.96872 31.22432 1972 ft 256 kts 62°
2026-05-07 20:50 29.97676 31.24356 1936 ft 272 kts 59°
2026-05-07 20:50 29.98652 31.26015 1868 ft 230 kts 50°
2026-05-07 20:50 29.99639 31.27375 1471 ft 215 kts 47°
2026-05-07 20:51 30.00622 31.28597 1259 ft 207 kts 43°
2026-05-07 20:51 30.01655 31.29786 1088 ft 215 kts 44°
2026-05-07 20:51 30.02699 31.31059 1077 ft 220 kts 45°
2026-05-07 20:51 30.03703 31.32462 1003 ft 234 kts 51°
2026-05-07 20:52 30.04620 31.34008 1099 ft 230 kts 55°
2026-05-07 20:52 30.05513 31.35495 1214 ft 218 kts 52°
2026-05-07 20:52 30.06313 31.36979 1206 ft 218 kts 57°
2026-05-07 20:52 30.07062 31.38435 1107 ft 201 kts 52°
2026-05-07 20:53 30.07956 31.39647 818 ft 203 kts 45°
2026-05-07 20:53 30.08944 31.40885 657 ft 213 kts 46°
2026-05-07 20:53 30.09897 31.42149 383 ft 199 kts 47°
2026-05-07 20:53 30.10804 31.43337 382 ft 223 kts 49°
2026-05-07 20:54 30.11869 31.44763 485 ft 245 kts 47°
2026-05-07 20:54 30.13051 31.46182 1696 ft 229 kts 31°
2026-05-07 20:54 30.14412 31.46579 3189 ft 206 kts
2026-05-07 20:54 30.15890 31.46222 3411 ft 234 kts 335°
2026-05-07 20:55 30.17212 31.45003 3805 ft 250 kts 310°
2026-05-07 20:55 30.17904 31.43145 4199 ft 283 kts 281°
2026-05-07 20:55 30.17894 31.40874 4332 ft 282 kts 262°
2026-05-07 20:55 30.17228 31.38708 4321 ft 289 kts 250°
2026-05-07 20:56 30.16446 31.36588 4242 ft 286 kts 248°
2026-05-07 20:56 30.15620 31.34507 4451 ft 285 kts 249°
2026-05-07 20:56 30.14803 31.32410 4377 ft 290 kts 249°
2026-05-07 20:56 30.13971 31.30302 4101 ft 288 kts 248°
2026-05-07 20:57 30.13073 31.28240 3912 ft 278 kts 240°
2026-05-07 20:57 30.11936 31.26563 3469 ft 265 kts 224°
2026-05-07 20:57 30.10431 31.25345 3192 ft 263 kts 202°
2026-05-07 20:57 30.08671 31.24844 3181 ft 259 kts 178°
2026-05-07 20:58 30.06944 31.25251 3288 ft 257 kts 153°
2026-05-07 20:58 30.05447 31.26312 2943 ft 246 kts 129°
2026-05-07 20:58 30.04619 31.27956 2903 ft 235 kts 94°
2026-05-07 20:58 30.04602 31.29823 2693 ft 228 kts 83°
2026-05-07 20:59 30.04671 31.31646 2533 ft 229 kts 84°
2026-05-07 20:59 30.04780 31.33470 2334 ft 228 kts 79°
2026-05-07 20:59 30.05009 31.35284 2064 ft 227 kts 74°
2026-05-07 20:59 30.05587 31.36940 1567 ft 220 kts 52°
2026-05-07 21:00 30.06588 31.38164 1161 ft 203 kts 41°
2026-05-07 21:00 30.07648 31.39258 1045 ft 207 kts 42°
2026-05-07 21:00 30.08619 31.40446 751 ft 200 kts 47°
2026-05-07 21:00 30.09524 31.41656 429 ft 203 kts 46°
2026-05-07 21:01 30.10398 31.42815 379 ft 164 kts 49°
2026-05-07 21:01 30.11005 31.43618 380 ft 105 kts 49°
2026-05-07 21:01 30.11370 31.44097 376 ft 69 kts 48°